#timestamp,LO_Frequency,Hit,StdDev 
1563249615.1,286046999.7,N
1563249616.0,286046999.7,N
1563249635.8,286047002.6,N
1563249655.7,286047002.7,N
1563249675.5,286047000.6,N
1563249695.3,286046998.8,N
1563249715.2,286047000.4,N
1563249735.0,286047000.2,N
1563249735.9,286047000.2,N
1563249755.8,286047003.9,N
1563249775.6,286047003.1,N
1563249795.4,286047004.3,N
1563249815.3,286047001.7,N
1563249835.1,286047001.4,N
1563249855.8,286047001.3,N
1563249875.7,286047001.9,N
1563249895.5,286047001.8,N
1563249915.4,286047003.6,N
1563249935.2,286047004.1,N
1563249955.0,286047001.8,N
1563249955.9,286047001.8,N
1563249975.8,286047003.7,N
1563249995.6,286047001.5,N
1563250015.4,286047004.4,N
1563250035.3,286047003.8,N
1563250055.1,286047003.5,N
1563250075.9,286047004.1,N
1563250095.7,286047004.0,N
1563250115.5,286047001.8,N
1563250135.4,286047001.3,N
1563250155.2,286047004.1,N
1563250175.1,286047003.5,N
1563250176.0,286047003.5,N
1563250195.8,286047001.9,N
1563250215.6,286047002.0,N
1563250235.5,286047001.5,N
1563250255.3,286047003.5,N
1563250275.1,286047001.9,N
1563250295.9,286047003.3,N
1563250315.7,286047002.2,N
1563250335.6,286047003.9,Y
1563250355.4,286046998.1,P
1563250375.3,286047000.3,N
1563250395.1,286047000.2,N
1563250396.0,286047000.2,N
1563250415.8,286047000.0,N
1563250435.7,286047001.0,N
1563250455.5,286047000.5,N
1563250475.4,286047002.3,N
1563250495.2,286047002.3,N
1563250515.0,286047000.0,N
1563250515.9,286047000.0,N
1563250535.8,286047002.2,N
1563250555.6,286047001.5,N
1563250575.4,286047000.0,N
1563250595.3,286047001.0,N
1563250615.1,286046998.2,N
1563250635.9,286046999.2,N
1563250655.7,286046998.2,N
1563250675.5,286047001.0,N
1563250695.4,286047000.9,N
1563250715.2,286047002.2,N
1563250735.0,286046999.8,N
1563250735.9,286046999.8,N
1563250755.8,286047000.9,N
1563250775.6,286047002.4,N
1563250795.5,286047000.8,N
1563250815.3,286047000.3,N
1563250835.3,286047000.2,N
1563250855.1,286047001.8,N
1563250875.9,286047004.0,Y
1563250895.7,286047000.9,P
1563250915.5,286046999.4,P
1563250935.4,286046998.2,N
1563250955.2,286046999.0,N
1563250975.1,286046998.3,N
1563250976.0,286046998.3,N
1563250995.8,286046998.7,N
1563251015.6,286046998.7,N
1563251035.5,286047001.2,N
1563251055.3,286046998.1,N
1563251075.2,286047000.8,N
1563251095.9,286046998.1,N
1563251115.7,286047000.3,N
1563251135.6,286047002.8,N
1563251155.4,286047000.6,N
1563251175.3,286047001.2,N
1563251195.1,286047001.9,N
1563251196.0,286047001.9,N
1563251215.8,286047003.7,N
1563251235.7,286047004.4,N
1563251255.5,286047003.0,N
1563251275.4,286047004.1,N
1563251295.2,286047002.5,N
1563251315.0,286046999.7,N
1563251315.9,286046999.7,N
1563251335.8,286047004.2,N
1563251355.6,286047002.3,N
1563251375.5,286047003.5,N
1563251395.3,286047003.3,N
1563251415.1,286047006.0,N
1563251435.9,286047006.0,N
1563251455.7,286047004.9,N
1563251475.5,286047004.5,N
1563251495.4,286047007.5,Y
1563251515.2,286047005.1,P
1563251535.1,286047006.0,P
1563251536.0,286047006.0,P
1563251555.8,286047003.4,N
1563251575.7,286047003.2,N
1563251595.5,286047001.3,N
1563251615.3,286047004.4,N
1563251635.2,286047001.3,N
1563251655.0,286047003.2,N
1563251655.9,286047003.2,N
1563251675.8,286047005.9,Y
1563251695.6,286047000.6,P
1563251715.4,286046998.1,N
1563251735.3,286046998.6,N
1563251755.1,286046999.6,N
1563251775.8,286046997.2,N
1563251795.7,286046998.4,N
1563251815.5,286046999.2,N
1563251835.4,286046998.9,N
1563251855.2,286046999.4,N
1563251875.0,286046997.2,N
1563251875.9,286046997.2,N
1563251895.8,286046996.9,N
1563251915.6,286046997.2,N
1563251935.5,286046997.3,N
1563251955.3,286046997.0,N
1563251975.1,286046997.5,N
1563251995.9,286046997.6,N
1563252015.7,286046997.6,N
1563252035.5,286046997.4,N
1563252055.4,286046999.6,N
1563252075.2,286046995.3,Y
1563252095.1,286046999.4,P
1563252096.0,286046999.4,N
1563252115.8,286046997.4,P
1563252135.6,286046997.9,N
1563252155.5,286046996.0,Y
1563252175.3,286046997.6,P
1563252195.2,286046998.0,P
1563252215.9,286046996.2,P
1563252235.7,286046997.3,Y
1563252255.6,286046999.1,P
1563252275.4,286046998.8,N
1563252295.2,286046996.8,P
1563252315.1,286046995.5,Y
1563252316.0,286046995.5,P
1563252335.8,286047001.0,N
1563252355.7,286047001.1,N
1563252375.5,286046998.7,N
1563252395.7,286046996.7,N
1563252415.5,286046996.9,N
1563252435.3,286046999.4,N
1563252455.4,286046996.6,N
1563252475.3,286046996.6,N
1563252495.1,286046997.7,N
1563252515.9,286046995.7,N
1563252535.7,286046997.3,N
1563252555.5,286046999.1,N
1563252575.4,286046996.7,N
1563252595.2,286046997.0,N
1563252615.0,286046998.1,N
1563252616.0,286046998.1,N
1563252635.8,286046998.6,N
1563252655.6,286046998.4,N
1563252675.5,286047000.5,N
1563252695.3,286046998.2,N
1563252715.1,286046998.7,N
1563252735.9,286047002.4,N
1563252755.7,286046999.9,N
1563252775.6,286046999.9,N
1563252795.4,286046999.8,N
1563252815.2,286047000.6,N
1563252835.1,286047000.4,N
1563252836.0,286047000.4,N
1563252855.8,286047000.6,N
1563252875.6,286047000.0,N
1563252895.5,286046998.3,N
1563252915.3,286047000.8,N
1563252935.2,286047000.8,N
1563252955.9,286046999.8,N
1563252975.7,286047001.9,N
1563252995.6,286047002.5,N
1563253015.4,286047000.1,N
1563253035.3,286047000.6,N
1563253055.1,286046999.4,N
1563253056.0,286046999.4,N
1563253075.8,286047000.5,N
1563253095.7,286047000.6,N
1563253115.5,286046999.8,N
1563253135.3,286047000.0,N
1563253155.5,286046999.9,N
1563253175.3,286047000.2,N
1563253195.1,286047011.9,Y
